| time (UTC) | temp C | wind direction | speed KPH | gust KPH | rain 1hr cm | rain 24hr cm | rain mn cm | humidity % | barometer mb |
| 20260503212716 | 23 | 25 | 4.8 | 4.8 | 0.00 | 0.00 | 0.00 | 50 | 1012.0 |
| 20260503211711 | 23 | 2 | 4.8 | 8.0 | 0.00 | 0.00 | 0.00 | 50 | 1012.2 |
| 20260503210709 | 23 | 351 | 0.0 | 1.6 | 0.00 | 0.00 | 0.00 | 54 | 1012.1 |
| 20260503205707 | 22 | 28 | 6.4 | 9.7 | 0.00 | 0.00 | 0.00 | 52 | 1012.3 |
| 20260503204706 | 22 | 15 | 4.8 | 4.8 | 0.00 | 0.00 | 0.00 | 52 | 1012.3 |
| 20260503203701 | 22 | 53 | 3.2 | 3.2 | 0.00 | 0.00 | 0.00 | 53 | 1012.4 |
| 20260503202701 | 23 | 44 | 6.4 | 8.0 | 0.00 | 0.00 | 0.00 | 52 | 1012.6 |
| 20260503201657 | 23 | 23 | 1.6 | 3.2 | 0.00 | 0.00 | 0.00 | 53 | 1012.6 |
| 20260503200656 | 22 | 32 | 3.2 | 3.2 | 0.00 | 0.00 | 0.00 | 56 | 1012.9 |
| 20260503195656 | 22 | 13 | 6.4 | 8.0 | 0.00 | 0.00 | 0.00 | 56 | 1012.9 |
| 20260503194655 | 21 | 4 | 1.6 | 3.2 | 0.00 | 0.00 | 0.00 | 57 | 1012.9 |
| 20260503193653 | 22 | 341 | 3.2 | 4.8 | 0.00 | 0.00 | 0.00 | 55 | 1012.9 |
| 20260503192650 | 21 | 35 | 1.6 | 3.2 | 0.00 | 0.00 | 0.00 | 57 | 1013.3 |
| 20260503191649 | 22 | 30 | 4.8 | 8.0 | 0.00 | 0.00 | 0.00 | 54 | 1013.2 |
| 20260503190649 | 22 | 355 | 3.2 | 8.0 | 0.00 | 0.00 | 0.00 | 58 | 1013.3 |
| 20260503185648 | 21 | 358 | 3.2 | 4.8 | 0.00 | 0.00 | 0.00 | 56 | 1013.5 |
| 20260503184645 | 22 | 29 | 4.8 | 4.8 | 0.00 | 0.00 | 0.00 | 54 | 1013.7 |
| 20260503183643 | 21 | 16 | 8.0 | 11.3 | 0.00 | 0.00 | 0.00 | 53 | 1013.6 |
| 20260503182639 | 21 | 36 | 8.0 | 9.7 | 0.00 | 0.00 | 0.00 | 54 | 1013.7 |
| 20260503181634 | 21 | 26 | 8.0 | 11.3 | 0.00 | 0.00 | 0.00 | 53 | 1013.8 |
| 20260503180634 | 21 | 355 | 3.2 | 3.2 | 0.00 | 0.00 | 0.00 | 58 | 1014.1 |
| 20260503175634 | 20 | 9 | 8.0 | 11.3 | 0.00 | 0.00 | 0.00 | 60 | 1014.0 |
| 20260503174634 | 19 | 342 | 1.6 | 3.2 | 0.00 | 0.00 | 0.00 | 65 | 1014.0 |
| 20260503173632 | 18 | 44 | 3.2 | 3.2 | 0.00 | 0.00 | 0.00 | 63 | 1014.0 |
| 20260503172632 | 18 | 43 | 3.2 | 3.2 | 0.00 | 0.00 | 0.00 | 65 | 1014.1 |
| 20260503171631 | 18 | 47 | 0.0 | 0.0 | 0.00 | 0.00 | 0.00 | 67 | 1014.1 |
| 20260503170632 | 18 | 32 | 1.6 | 3.2 | 0.00 | 0.00 | 0.00 | 66 | 1014.5 |
| 20260503150617 | 17 | 35 | 3.2 | 8.0 | 0.00 | 0.00 | 0.00 | 70 | 1014.5 |
| 20260503130602 | 11 | 22 | 0.0 | 1.6 | 0.00 | 0.00 | 0.00 | 85 | 1013.9 |
| 20260503110533 | 13 | 45 | 0.0 | 0.0 | 0.00 | 0.00 | 0.00 | 76 | 1014.3 |
| 20260503081503 | 12 | 16 | 1.6 | 1.6 | 0.00 | 0.00 | 0.00 | 79 | 1014.4 |
| 20260503080502 | 12 | 27 | 0.0 | 0.0 | 0.00 | 0.00 | 0.00 | 79 | 1014.4 |
| 20260503072454 | 12 | 7 | 1.6 | 1.6 | 0.00 | 0.00 | 0.00 | 82 | 1014.3 |
| 20260503071453 | 12 | 29 | 0.0 | 0.0 | 0.00 | 0.00 | 0.00 | 81 | 1014.3 |
| 20260503070452 | 13 | 27 | 0.0 | 0.0 | 0.00 | 0.00 | 0.00 | 79 | 1014.0 |
| 20260503054424 | 13 | 8 | 1.6 | 1.6 | 0.00 | 0.00 | 0.00 | 77 | 1014.1 |
| 20260503053420 | 13 | 22 | 0.0 | 0.0 | 0.00 | 0.00 | 0.00 | 76 | 1014.2 |
| 20260503052419 | 13 | 352 | 1.6 | 1.6 | 0.00 | 0.00 | 0.00 | 77 | 1013.9 |
| 20260503051417 | 13 | 28 | 0.0 | 0.0 | 0.00 | 0.00 | 0.00 | 78 | 1013.8 |
| 20260503050416 | 13 | 25 | 0.0 | 1.6 | 0.00 | 0.00 | 0.00 | 77 | 1013.9 |
| 20260503045411 | 13 | 23 | 0.0 | 1.6 | 0.00 | 0.00 | 0.00 | 76 | 1013.9 |
| 20260503044410 | 13 | 26 | 0.0 | 0.0 | 0.00 | 0.00 | 0.00 | 74 | 1013.8 |
| 20260503043410 | 14 | 13 | 1.6 | 1.6 | 0.00 | 0.00 | 0.00 | 73 | 1013.6 |
| 20260503042409 | 14 | 26 | 0.0 | 0.0 | 0.00 | 0.00 | 0.00 | 72 | 1013.6 |
| 20260503041408 | 14 | 26 | 0.0 | 0.0 | 0.00 | 0.00 | 0.00 | 72 | 1013.7 |
| 20260503040403 | 15 | 24 | 0.0 | 0.0 | 0.00 | 0.00 | 0.00 | 70 | 1013.7 |
| 20260503035402 | 15 | 10 | 1.6 | 1.6 | 0.00 | 0.00 | 0.00 | 69 | 1013.6 |
| 20260503034357 | 15 | 24 | 1.6 | 3.2 | 0.00 | 0.00 | 0.00 | 69 | 1013.5 |
| 20260503033357 | 16 | 25 | 0.0 | 0.0 | 0.00 | 0.00 | 0.00 | 68 | 1013.3 |
| 20260503032354 | 16 | 20 | 0.0 | 0.0 | 0.00 | 0.00 | 0.00 | 65 | 1013.3 |
| 20260503031349 | 16 | 38 | 0.0 | 0.0 | 0.00 | 0.00 | 0.00 | 66 | 1013.1 |
| 20260503030347 | 16 | 31 | 0.0 | 0.0 | 0.00 | 0.00 | 0.00 | 65 | 1013.0 |
| 20260503025347 | 17 | 35 | 0.0 | 0.0 | 0.00 | 0.00 | 0.00 | 64 | 1013.1 |
| 20260503024346 | 17 | 63 | 0.0 | 1.6 | 0.00 | 0.00 | 0.00 | 64 | 1013.2 |
| 20260503023346 | 17 | 39 | 0.0 | 0.0 | 0.00 | 0.00 | 0.00 | 63 | 1013.1 |
| 20260503022343 | 17 | 29 | 1.6 | 1.6 | 0.00 | 0.00 | 0.00 | 63 | 1012.9 |
| 20260503021342 | 17 | 97 | 0.0 | 3.2 | 0.00 | 0.00 | 0.00 | 62 | 1012.9 |
| 20260503020338 | 18 | 25 | 1.6 | 3.2 | 0.00 | 0.00 | 0.00 | 61 | 1013.0 |
| 20260503015337 | 18 | 50 | 1.6 | 1.6 | 0.00 | 0.00 | 0.00 | 61 | 1013.1 |
| 20260503014336 | 18 | 58 | 1.6 | 3.2 | 0.00 | 0.00 | 0.00 | 61 | 1013.3 |
| 20260503013336 | 18 | 29 | 0.0 | 1.6 | 0.00 | 0.00 | 0.00 | 59 | 1013.1 |
| 20260503012331 | 18 | 326 | 3.2 | 3.2 | 0.00 | 0.00 | 0.00 | 59 | 1013.3 |
| 20260503011330 | 19 | 37 | 0.0 | 1.6 | 0.00 | 0.00 | 0.00 | 59 | 1013.4 |
| 20260503010330 | 20 | 11 | 4.8 | 4.8 | 0.00 | 0.00 | 0.00 | 57 | 1013.7 |
| 20260503005330 | 20 | 26 | 4.8 | 4.8 | 0.00 | 0.00 | 0.00 | 56 | 1013.7 |
| 20260503004330 | 20 | 34 | 4.8 | 4.8 | 0.00 | 0.00 | 0.00 | 58 | 1013.8 |
| 20260503003330 | 20 | 303 | 4.8 | 4.8 | 0.00 | 0.00 | 0.00 | 58 | 1013.6 |
| 20260503002330 | 21 | 21 | 6.4 | 8.0 | 0.00 | 0.00 | 0.00 | 58 | 1013.7 |
| 20260503001328 | 21 | 40 | 3.2 | 4.8 | 0.00 | 0.00 | 0.00 | 57 | 1013.5 |
| 20260503000325 | 20 | 31 | 3.2 | 3.2 | 0.00 | 0.00 | 0.00 | 60 | 1013.9 |
| 20260502235323 | 20 | 122 | 0.0 | 1.6 | 0.00 | 0.00 | 0.00 | 59 | 1013.8 |
| 20260502234323 | 21 | 36 | 3.2 | 4.8 | 0.00 | 0.00 | 0.00 | 58 | 1014.2 |
| 20260502233322 | 21 | 13 | 1.6 | 3.2 | 0.00 | 0.00 | 0.00 | 60 | 1014.0 |
| 20260502232321 | 20 | 263 | 3.2 | 3.2 | 0.00 | 0.00 | 0.00 | 60 | 1014.4 |
| 20260502231321 | 20 | 119 | 3.2 | 3.2 | 0.00 | 0.00 | 0.00 | 60 | 1014.4 |
| 20260502230317 | 20 | 76 | 4.8 | 8.0 | 0.00 | 0.00 | 0.00 | 60 | 1014.3 |
| 20260502225316 | 20 | 63 | 1.6 | 3.2 | 0.00 | 0.00 | 0.00 | 60 | 1014.7 |
| 20260502224315 | 20 | 276 | 4.8 | 4.8 | 0.00 | 0.00 | 0.00 | 62 | 1015.0 |
| 20260502223311 | 20 | 2 | 6.4 | 8.0 | 0.00 | 0.00 | 0.00 | 63 | 1015.0 |
| 20260502222311 | 20 | 178 | 4.8 | 4.8 | 0.00 | 0.00 | 0.00 | 63 | 1015.0 |
| 20260502221309 | 20 | 24 | 1.6 | 1.6 | 0.00 | 0.00 | 0.00 | 63 | 1015.3 |
| 20260502220308 | 20 | 349 | 0.0 | 1.6 | 0.00 | 0.00 | 0.00 | 64 | 1015.4 |
| 20260502215308 | 20 | 30 | 4.8 | 8.0 | 0.00 | 0.00 | 0.00 | 63 | 1015.5 |
| 20260502214308 | 20 | 354 | 1.6 | 3.2 | 0.00 | 0.00 | 0.00 | 64 | 1015.4 |
| 20260502213308 | 19 | 25 | 4.8 | 8.0 | 0.00 | 0.00 | 0.00 | 65 | 1015.4 |